Time,TemperatureF,DewpointF,PressureIn,WindDirection,WindDirectionDegrees,WindSpeedMPH,WindSpeedGustMPH,Humidity,HourlyPrecipIn,Conditions,Clouds,dailyrainin,SoftwareType,DateUTC
2013-07-29 00:02:00,57.0,30.0,-100.00,WNW,301,4.0,6.0,35,0.00,,,0.00,,2013-07-29 06:02:00,
2013-07-29 00:22:00,57.0,31.0,-100.00,NW,313,4.0,5.0,37,0.00,,,0.00,,2013-07-29 06:22:00,
2013-07-29 00:32:00,57.0,31.0,-100.00,NW,313,4.0,5.0,37,0.00,,,0.00,,2013-07-29 06:32:00,
2013-07-29 00:52:00,56.0,31.0,-100.00,NW,316,4.0,6.0,38,0.00,,,0.00,,2013-07-29 06:52:00,
2013-07-29 01:02:00,56.0,31.0,-100.00,NW,316,4.0,6.0,38,0.00,,,0.00,,2013-07-29 07:02:00,
2013-07-29 01:22:00,57.0,30.0,-100.00,NW,311,6.0,9.0,36,0.00,,,0.00,,2013-07-29 07:22:00,
2013-07-29 01:33:00,57.0,30.0,-100.00,NW,311,6.0,9.0,36,0.00,,,0.00,,2013-07-29 07:33:00,
2013-07-29 01:43:00,56.0,29.0,-100.00,NW,319,6.0,9.0,35,0.00,,,0.00,,2013-07-29 07:43:00,
2013-07-29 01:53:00,56.0,29.0,-100.00,NW,319,6.0,9.0,35,0.00,,,0.00,,2013-07-29 07:53:00,
2013-07-29 02:02:00,56.0,29.0,-100.00,NW,319,6.0,9.0,35,0.00,,,0.00,,2013-07-29 08:02:00,
2013-07-29 02:12:00,56.0,29.0,-100.00,NW,319,6.0,9.0,35,0.00,,,0.00,,2013-07-29 08:12:00,
2013-07-29 02:33:00,53.0,30.0,-100.00,NW,323,4.0,5.0,40,0.00,,,0.00,,2013-07-29 08:33:00,
2013-07-29 02:42:00,53.0,28.0,-100.00,NNW,330,3.0,4.0,38,0.00,,,0.00,,2013-07-29 08:42:00,
2013-07-29 02:52:00,53.0,28.0,-100.00,NNW,330,3.0,4.0,38,0.00,,,0.00,,2013-07-29 08:52:00,
2013-07-29 03:02:00,52.0,28.0,-100.00,NNW,328,5.0,6.0,40,0.00,,,0.00,,2013-07-29 09:02:00,
2013-07-29 03:12:00,52.0,28.0,-100.00,NNW,328,5.0,6.0,40,0.00,,,0.00,,2013-07-29 09:12:00,
2013-07-29 03:22:00,52.0,28.0,-100.00,NNW,328,5.0,6.0,40,0.00,,,0.00,,2013-07-29 09:22:00,
2013-07-29 03:33:00,51.0,27.0,-100.00,NNW,329,4.0,5.0,39,0.00,,,0.00,,2013-07-29 09:33:00,
2013-07-29 03:43:00,51.0,27.0,-100.00,NNW,329,4.0,5.0,39,0.00,,,0.00,,2013-07-29 09:43:00,
2013-07-29 04:00:00,52.0,26.0,-100.00,NW,322,5.0,6.0,36,0.00,,,0.00,,2013-07-29 10:00:00,
2013-07-29 04:02:00,52.0,26.0,-100.00,NW,318,6.0,7.0,35,0.00,,,0.00,,2013-07-29 10:02:00,
2013-07-29 04:13:00,52.0,26.0,-100.00,NW,318,6.0,7.0,35,0.00,,,0.00,,2013-07-29 10:13:00,
2013-07-29 04:23:00,52.0,26.0,-100.00,NW,318,6.0,7.0,35,0.00,,,0.00,,2013-07-29 10:23:00,
2013-07-29 04:46:00,52.0,26.0,-100.00,NW,322,5.0,6.0,36,0.00,,,0.00,,2013-07-29 10:46:00,
2013-07-29 04:55:00,52.0,26.0,-100.00,NW,322,5.0,6.0,36,0.00,,,0.00,,2013-07-29 10:55:00,
2013-07-29 05:34:00,49.0,27.0,-100.00,WNW,295,1.0,2.0,43,0.00,,,0.00,,2013-07-29 11:34:00,
2013-07-29 05:44:00,48.0,29.0,-100.00,WSW,247,0.0,1.0,47,0.00,,,0.00,,2013-07-29 11:44:00,
2013-07-29 05:58:00,48.0,29.0,-100.00,WSW,247,0.0,1.0,47,0.00,,,0.00,,2013-07-29 11:58:00,
2013-07-29 06:04:00,48.0,29.0,-100.00,WSW,247,0.0,1.0,47,0.00,,,0.00,,2013-07-29 12:04:00,
2013-07-29 06:13:00,48.0,31.0,-100.00,West,280,0.0,1.0,50,0.00,,,0.00,,2013-07-29 12:13:00,
2013-07-29 06:24:00,48.0,31.0,-100.00,West,280,0.0,1.0,50,0.00,,,0.00,,2013-07-29 12:24:00,
2013-07-29 06:34:00,48.0,31.0,-100.00,West,280,0.0,1.0,50,0.00,,,0.00,,2013-07-29 12:34:00,
2013-07-29 06:44:00,48.0,31.0,-100.00,WNW,288,1.0,1.0,51,0.00,,,0.00,,2013-07-29 12:44:00,
2013-07-29 06:57:00,48.0,31.0,-100.00,WNW,288,1.0,1.0,51,0.00,,,0.00,,2013-07-29 12:57:00,
2013-07-29 07:03:00,48.0,31.0,-100.00,WNW,288,1.0,1.0,51,0.00,,,0.00,,2013-07-29 13:03:00,
2013-07-29 07:13:00,48.0,31.0,-100.00,WNW,288,1.0,1.0,51,0.00,,,0.00,,2013-07-29 13:13:00,
2013-07-29 07:45:00,47.0,31.0,-100.00,NNW,343,2.0,2.0,54,0.00,,,0.00,,2013-07-29 13:45:00,
2013-07-29 07:56:00,47.0,31.0,-100.00,NNW,343,2.0,2.0,54,0.00,,,0.00,,2013-07-29 13:56:00,
2013-07-29 08:03:00,49.0,32.0,-100.00,NNW,333,1.0,2.0,52,0.00,,,0.00,,2013-07-29 14:03:00,
2013-07-29 08:12:00,49.0,32.0,-100.00,NNW,333,1.0,2.0,52,0.00,,,0.00,,2013-07-29 14:12:00,
2013-07-29 08:43:00,54.0,32.0,-100.00,South,171,2.0,5.0,42,0.00,,,0.00,,2013-07-29 14:43:00,
2013-07-29 08:56:00,54.0,32.0,-100.00,South,171,2.0,5.0,42,0.00,,,0.00,,2013-07-29 14:56:00,
2013-07-29 09:00:00,58.0,39.0,-100.00,ESE,113,4.0,5.0,49,0.00,,,0.00,,2013-07-29 15:00:00,
2013-07-29 09:34:00,58.0,39.0,-100.00,ESE,113,4.0,5.0,49,0.00,,,0.00,,2013-07-29 15:34:00,
2013-07-29 09:44:00,58.0,39.0,-100.00,ESE,113,4.0,5.0,49,0.00,,,0.00,,2013-07-29 15:44:00,
2013-07-29 09:55:00,58.0,39.0,-100.00,ESE,113,4.0,5.0,49,0.00,,,0.00,,2013-07-29 15:55:00,
2013-07-29 10:23:00,60.0,35.0,-100.00,SE,137,5.0,6.0,38,0.00,,,0.00,,2013-07-29 16:23:00,
2013-07-29 10:35:00,60.0,35.0,-100.00,SE,137,5.0,6.0,38,0.00,,,0.00,,2013-07-29 16:35:00,
2013-07-29 10:57:00,61.0,34.0,-100.00,SE,138,6.0,8.0,35,0.00,,,0.00,,2013-07-29 16:57:00,
2013-07-29 11:05:00,61.0,34.0,-100.00,SE,138,6.0,8.0,35,0.00,,,0.00,,2013-07-29 17:05:00,
2013-07-29 11:23:00,63.0,33.0,-100.00,SSE,150,6.0,10.0,32,0.00,,,0.00,,2013-07-29 17:23:00,
2013-07-29 11:58:00,65.0,32.0,-100.00,SE,133,9.0,13.0,29,0.00,,,0.00,,2013-07-29 17:58:00,
2013-07-29 12:04:00,65.0,32.0,-100.00,SE,133,9.0,13.0,29,0.00,,,0.00,,2013-07-29 18:04:00,
2013-07-29 12:24:00,66.0,32.0,-100.00,ESE,119,9.0,12.0,28,0.00,,,0.00,,2013-07-29 18:24:00,
2013-07-29 12:34:00,66.0,32.0,-100.00,ESE,119,9.0,12.0,28,0.00,,,0.00,,2013-07-29 18:34:00,
2013-07-29 12:58:00,68.0,31.0,-100.00,SE,133,10.0,14.0,25,0.00,,,0.00,,2013-07-29 18:58:00,
2013-07-29 13:36:00,70.0,31.0,-100.00,SE,140,9.0,15.0,23,0.00,,,0.00,,2013-07-29 19:36:00,
2013-07-29 13:44:00,72.0,27.0,-100.00,SW,226,5.0,11.0,19,0.00,,,0.00,,2013-07-29 19:44:00,
2013-07-29 13:57:00,72.0,27.0,-100.00,SW,226,5.0,11.0,19,0.00,,,0.00,,2013-07-29 19:57:00,
2013-07-29 14:04:00,72.0,27.0,-100.00,SW,226,5.0,11.0,19,0.00,,,0.00,,2013-07-29 20:04:00,
2013-07-29 14:23:00,71.0,21.0,-100.00,ESE,110,6.0,11.0,15,0.00,,,0.00,,2013-07-29 20:23:00,
2013-07-29 14:33:00,71.0,21.0,-100.00,ESE,110,6.0,11.0,15,0.00,,,0.00,,2013-07-29 20:33:00,
2013-07-29 14:46:00,73.0,29.0,-100.00,West,280,5.0,9.0,19,0.00,,,0.00,,2013-07-29 20:46:00,
2013-07-29 14:58:00,72.0,24.0,-100.00,North,0,6.0,9.0,16,0.00,,,0.00,,2013-07-29 20:58:00,
2013-07-29 15:04:00,72.0,24.0,-100.00,North,0,6.0,9.0,16,0.00,,,0.00,,2013-07-29 21:04:00,
2013-07-29 15:23:00,74.0,20.0,-100.00,SSW,206,6.0,14.0,13,0.00,,,0.00,,2013-07-29 21:23:00,
2013-07-29 15:34:00,74.0,20.0,-100.00,SSW,206,6.0,14.0,13,0.00,,,0.00,,2013-07-29 21:34:00,
2013-07-29 15:59:00,75.0,22.0,-100.00,WSW,240,4.0,14.0,14,0.00,,,0.00,,2013-07-29 21:59:00,
2013-07-29 16:24:00,74.0,22.0,-100.00,WSW,258,5.0,11.0,14,0.00,,,0.00,,2013-07-29 22:24:00,
2013-07-29 16:43:00,76.0,21.0,-100.00,SE,134,4.0,8.0,13,0.00,,,0.00,,2013-07-29 22:43:00,
2013-07-29 16:56:00,76.0,21.0,-100.00,SE,134,4.0,8.0,13,0.00,,,0.00,,2013-07-29 22:56:00,
2013-07-29 17:04:00,76.0,21.0,-100.00,SE,134,4.0,8.0,13,0.00,,,0.00,,2013-07-29 23:04:00,
2013-07-29 17:12:00,76.0,21.0,-100.00,SE,134,4.0,8.0,13,0.00,,,0.00,,2013-07-29 23:12:00,
2013-07-29 17:24:00,75.0,22.0,-100.00,West,275,2.0,3.0,13,0.00,,,0.00,,2013-07-29 23:24:00,
2013-07-29 17:34:00,75.0,22.0,-100.00,West,275,2.0,3.0,13,0.00,,,0.00,,2013-07-29 23:34:00,
2013-07-29 17:44:00,74.0,21.0,-100.00,West,277,4.0,6.0,14,0.00,,,0.00,,2013-07-29 23:44:00,
2013-07-29 17:56:00,74.0,21.0,-100.00,West,277,4.0,6.0,14,0.00,,,0.00,,2013-07-29 23:56:00,
2013-07-29 18:03:00,74.0,21.0,-100.00,West,277,4.0,6.0,14,0.00,,,0.00,,2013-07-30 00:03:00,
2013-07-29 18:23:00,73.0,21.0,-100.00,ENE,75,2.0,4.0,14,0.00,,,0.00,,2013-07-30 00:23:00,
2013-07-29 18:33:00,73.0,21.0,-100.00,ENE,75,2.0,4.0,14,0.00,,,0.00,,2013-07-30 00:33:00,
2013-07-29 18:44:00,71.0,21.0,-100.00,NW,308,6.0,9.0,15,0.00,,,0.00,,2013-07-30 00:44:00,
2013-07-29 18:55:00,71.0,21.0,-100.00,NW,308,6.0,9.0,15,0.00,,,0.00,,2013-07-30 00:55:00,
2013-07-29 19:05:00,71.0,21.0,-100.00,NW,308,6.0,9.0,15,0.00,,,0.00,,2013-07-30 01:05:00,
2013-07-29 19:23:00,71.0,21.0,-100.00,NW,318,11.0,15.0,15,0.00,,,0.00,,2013-07-30 01:23:00,
2013-07-29 20:04:00,69.0,29.0,-100.00,WNW,295,5.0,9.0,22,0.00,,,0.00,,2013-07-30 02:04:00,
2013-07-29 21:14:00,66.0,29.0,-100.00,NW,316,5.0,7.0,25,0.00,,,0.00,,2013-07-30 03:14:00,
2013-07-29 21:23:00,66.0,29.0,-100.00,NW,316,5.0,7.0,25,0.00,,,0.00,,2013-07-30 03:23:00,
2013-07-29 21:33:00,65.0,28.0,-100.00,NW,309,4.0,6.0,25,0.00,,,0.00,,2013-07-30 03:33:00,
2013-07-29 21:47:00,65.0,28.0,-100.00,NW,309,4.0,6.0,25,0.00,,,0.00,,2013-07-30 03:47:00,
2013-07-29 22:02:00,63.0,29.0,-100.00,NW,308,4.0,6.0,28,0.00,,,0.00,,2013-07-30 04:02:00,
2013-07-29 22:12:00,63.0,29.0,-100.00,NW,308,4.0,6.0,28,0.00,,,0.00,,2013-07-30 04:12:00,
2013-07-29 22:22:00,63.0,29.0,-100.00,NW,308,4.0,6.0,28,0.00,,,0.00,,2013-07-30 04:22:00,
2013-07-29 22:43:00,63.0,30.0,-100.00,NW,322,5.0,7.0,29,0.00,,,0.00,,2013-07-30 04:43:00,
2013-07-29 22:53:00,63.0,30.0,-100.00,NW,322,5.0,7.0,29,0.00,,,0.00,,2013-07-30 04:53:00,
2013-07-29 23:02:00,61.0,30.0,-100.00,NW,318,4.0,6.0,30,0.00,,,0.00,,2013-07-30 05:02:00,
2013-07-29 23:12:00,61.0,30.0,-100.00,NW,318,4.0,6.0,30,0.00,,,0.00,,2013-07-30 05:12:00,
2013-07-29 23:22:00,61.0,30.0,-100.00,NW,318,4.0,6.0,30,0.00,,,0.00,,2013-07-30 05:22:00,
2013-07-29 23:45:00,58.0,29.0,-100.00,North,353,2.0,3.0,33,0.00,,,0.00,,2013-07-30 05:45:00,